Regional Weather Roundup
Issued by NWS

Home | Current Version | Previous Version | Text Only | Print | Product List | Glossary On
Versions: 1 2 3 4 5 6 7 8 9 10 11 12 13 14 15 16 17 18 19 20 21 22 23 24 25 26 27 28 29 30 31 32 33 34 35 36 37 38 39 40 41 42 43 44 45 46 47 48 49 50
000
ASUS43 KLMK 200310
RWRKY
KENTUCKY REGIONAL WEATHER ROUNDUP
NATIONAL WEATHER SERVICE LOUISVILLE KY
1000 PM EST SUN FEB 19 2017

NOTE "FAIR" INDICATES FEW OR NO CLOUDS BELOW 12,000 FEET
WITH NO SIGNIFICANT WEATHER AND/OR OBSTRUCTIONS TO VISIBILITY.

KYZ001>023-026-027-061>063-070>075-200400-
WESTERN AND SOUTH CENTRAL KENTUCKY

CITY           SKY/WX    TMP DP  RH WIND       PRES   REMARKS
PADUCAH        CLOUDY    53  51  93 CALM      30.10R FOG
HENDERSON      MOCLDY    43  39  87 E3        30.12R VSB 1/4
OWENSBORO      CLEAR     47  46  97 E3        30.13R FOG
HOPKINSVILLE   CLEAR     56  53  91 E5        30.11R
BOWLING GREEN  FOG       46  45  96 CALM      30.14R VSB 1/4
GLASGOW        CLEAR    N/A N/A N/A CALM      30.14R FOG
$$

KYZ024-025-028>034-038-045-046-053-200400-
NORTH CENTRAL KENTUCKY

CITY           SKY/WX    TMP DP  RH WIND       PRES   REMARKS
LOUISVILLE/SDF PTCLDY    47  45  93 SE3       30.15R FOG
LOUISVILLE/LOU PTCLDY    45  43  93 CALM      30.15R FOG
FORT KNOX      CLEAR     42  42 100 CALM      30.13R FOG
$$

KYZ035>037-039>044-047>052-055>060-089>105-200400-
NORTHEAST KENTUCKY

CITY           SKY/WX    TMP DP  RH WIND       PRES   REMARKS
LEXINGTON      CLEAR     47  44  90 CALM      30.16R FOG
COVINGTON      CLEAR     46  45  96 S5        30.16R FOG
FRANKFORT      FOG       41  38  89 CALM      30.16R VSB 1/2
$$

KYZ054-064>069-076>088-106>120-200400-
SOUTHEAST KENTUCKY

CITY           SKY/WX    TMP DP  RH WIND       PRES   REMARKS
JACKSON        CLEAR     50  43  77 NE3       30.16R
LONDON         CLEAR     46  41  82 CALM      30.15R
SOMERSET       CLEAR     46  43  87 CALM      30.16R
MIDDLESBORO    CLEAR     44  43  97 CALM      30.17S
MONTICELLO     CLEAR     41  39  93 CALM      30.17R
$$





USA.gov is the U.S. government's official web portal to all federal, state and local government web resources and services.